This is the latest recevied weather packets stored in our database for station/object WZ8H. If no packets are shown the sender has not sent any weather packets the latest 10 day(s).
| Time | Temp. | Humidity | Pressure | Rain* | Wind** | Luminosity | Snow |
|---|---|---|---|---|---|---|---|
| 1777557096 | 7.78° C | 81% | 1013.7 hPa | 0 mm | - | 155 W/m² | - |
| 1777556794 | 7.78° C | 81% | 1013.6 hPa | 0 mm | - | 88 W/m² | - |
| 1777556491 | 7.78° C | 80% | 1013.7 hPa | 0 mm | - | 95 W/m² | - |
| 1777556186 | 7.78° C | 80% | 1013.6 hPa | 0 mm | - | 88 W/m² | - |
| 1777555889 | 7.78° C | 81% | 1013.6 hPa | 0 mm | - | 172 W/m² | - |
| 1777555584 | 7.78° C | 80% | 1013.6 hPa | 0 mm | - | 135 W/m² | - |
| 1777555281 | 7.78° C | 81% | 1013.5 hPa | 0 mm | - | 120 W/m² | - |
| 1777554983 | 7.78° C | 80% | 1013.5 hPa | 0 mm | - | 241 W/m² | - |
| 1777554681 | 7.78° C | 81% | 1013.4 hPa | 0 mm | - | 200 W/m² | - |
| 1777554384 | 7.78° C | 81% | 1013.4 hPa | 0 mm | - | 302 W/m² | - |
| 1777554057 | 7.78° C | 81% | 1013.2 hPa | 0 mm | - | 183 W/m² | - |
| 1777553730 | 7.22° C | 81% | 1013.3 hPa | 0 mm | - | 146 W/m² | - |
| 1777553434 | 7.22° C | 81% | 1013.3 hPa | 0 mm | - | 125 W/m² | - |
| 1777553106 | 7.22° C | 81% | 1013.2 hPa | 0 mm | - | 95 W/m² | - |
| 1777552788 | 7.22° C | 81% | 1013.3 hPa | 0 mm | - | 54 W/m² | - |
| 1777552487 | 7.22° C | 81% | 1013.3 hPa | 0 mm | - | 95 W/m² | - |
| 1777552192 | 7.22° C | 81% | 1013.3 hPa | 0 mm | - | 63 W/m² | - |
| 1777551862 | 7.22° C | 80% | 1013.2 hPa | 0 mm | - | 69 W/m² | - |
| 1777551540 | 7.22° C | 81% | 1013.2 hPa | 0 mm | - | 74 W/m² | - |
| 1777551233 | 7.22° C | 81% | 1013.2 hPa | 0 mm | - | 65 W/m² | - |
| 1777550905 | 7.22° C | 80% | 1013.1 hPa | 0 mm | - | 53 W/m² | - |
| 1777550598 | 7.22° C | 80% | 1013.2 hPa | 0 mm | - | 60 W/m² | - |
| 1777550271 | 7.22° C | 80% | 1013.1 hPa | 0 mm | - | 60 W/m² | - |
| 1777549968 | 7.22° C | 80% | 1013.1 hPa | 0 mm | - | 46 W/m² | - |
| 1777549665 | 7.22° C | 81% | 1012.9 hPa | 0 mm | - | 30 W/m² | - |
* Rain latest hour (hover to see other rain measurements)
** Current wind speed in m/s (hover to see current wind gust speed)